| time (UTC) | temp F | wind direction | speed MPH | gust MPH | rain 1hr in | rain 24hr in | rain mn in | humidity % | barometer mb |
| 20260905134544 | 83 | 166 | 7.0 | 12.0 | 0.00 | 0.00 | 0.00 | 84 | 1012.5 |
| 20260905133042 | 82 | 156 | 8.0 | 12.0 | 0.00 | 0.00 | 0.00 | 85 | 1012.2 |
| 20260905131551 | 82 | 126 | 8.0 | 13.0 | 0.00 | 0.00 | 0.00 | 85 | 1012.0 |
| 20260905130051 | 82 | 134 | 5.0 | 10.0 | 0.00 | 0.00 | 0.00 | 85 | 1011.7 |
| 20260905124551 | 82 | 128 | 5.0 | 10.0 | 0.00 | 0.00 | 0.00 | 85 | 1011.6 |
| 20260905123043 | 82 | 131 | 3.0 | 10.0 | 0.00 | 0.00 | 0.00 | 85 | 1011.3 |
| 20260905121549 | 82 | 131 | 5.0 | 12.0 | 0.00 | 0.00 | 0.00 | 85 | 1011.2 |
| 20260905120051 | 82 | 140 | 6.0 | 11.0 | 0.00 | 0.00 | 0.00 | 84 | 1011.0 |
| 20260905114547 | 82 | 146 | 6.0 | 11.0 | 0.00 | 0.00 | 0.00 | 84 | 1011.0 |
| 20260905113045 | 82 | 140 | 6.0 | 10.0 | 0.00 | 0.00 | 0.00 | 84 | 1011.0 |
| 20260905111555 | 83 | 155 | 8.0 | 14.0 | 0.00 | 0.00 | 0.00 | 83 | 1011.0 |
| 20260905110049 | 83 | 153 | 8.0 | 14.0 | 0.00 | 0.00 | 0.00 | 83 | 1011.0 |
| 20260905104549 | 83 | 155 | 10.0 | 16.0 | 0.00 | 0.00 | 0.00 | 83 | 1011.0 |
| 20260905103044 | 83 | 154 | 8.0 | 15.0 | 0.00 | 0.00 | 0.00 | 83 | 1011.1 |
| 20260905101553 | 83 | 139 | 5.0 | 12.0 | 0.00 | 0.00 | 0.00 | 83 | 1011.1 |
| 20260905100104 | 83 | 131 | 6.0 | 12.0 | 0.00 | 0.00 | 0.00 | 83 | 1011.2 |
| 20260905094547 | 83 | 150 | 7.0 | 11.0 | 0.00 | 0.00 | 0.00 | 83 | 1011.2 |
| 20260905093046 | 83 | 128 | 7.0 | 12.0 | 0.00 | 0.00 | 0.00 | 83 | 1011.3 |
| 20260905091600 | 83 | 134 | 6.0 | 12.0 | 0.00 | 0.00 | 0.00 | 83 | 1011.2 |
| 20260905090043 | 83 | 141 | 7.0 | 11.0 | 0.00 | 0.00 | 0.00 | 83 | 1011.3 |
| 20260905084552 | 83 | 148 | 6.0 | 10.0 | 0.00 | 0.00 | 0.00 | 83 | 1011.3 |
| 20260905083044 | 84 | 143 | 6.0 | 10.0 | 0.00 | 0.00 | 0.00 | 82 | 1011.4 |
| 20260905081542 | 84 | 137 | 5.0 | 12.0 | 0.00 | 0.00 | 0.00 | 82 | 1011.5 |
| 20260905080050 | 84 | 132 | 7.0 | 12.0 | 0.00 | 0.00 | 0.00 | 82 | 1011.6 |
| 20260905074541 | 84 | 131 | 7.0 | 11.0 | 0.00 | 0.00 | 0.00 | 81 | 1011.7 |
| 20260905073044 | 84 | 146 | 5.0 | 11.0 | 0.00 | 0.00 | 0.00 | 82 | 1011.8 |
| 20260905071542 | 84 | 147 | 6.0 | 11.0 | 0.00 | 0.00 | 0.00 | 82 | 1012.0 |
| 20260905070044 | 84 | 148 | 6.0 | 13.0 | 0.00 | 0.00 | 0.00 | 82 | 1012.3 |
| 20260905064547 | 84 | 131 | 7.0 | 14.0 | 0.00 | 0.00 | 0.00 | 82 | 1012.1 |
| 20260905063058 | 85 | 126 | 6.0 | 13.0 | 0.00 | 0.00 | 0.00 | 82 | 1012.1 |
| 20260905061557 | 85 | 165 | 8.0 | 14.0 | 0.00 | 0.00 | 0.00 | 81 | 1012.0 |
| 20260905060047 | 85 | 134 | 8.0 | 16.0 | 0.00 | 0.00 | 0.00 | 81 | 1011.9 |
| 20260905054542 | 85 | 144 | 9.0 | 16.0 | 0.00 | 0.00 | 0.00 | 80 | 1011.9 |
| 20260905053057 | 85 | 130 | 10.0 | 16.0 | 0.00 | 0.00 | 0.00 | 79 | 1011.9 |
| 20260905051547 | 85 | 139 | 10.0 | 16.0 | 0.00 | 0.00 | 0.00 | 79 | 1012.2 |
| 20260905050043 | 85 | 124 | 10.0 | 15.0 | 0.00 | 0.00 | 0.00 | 79 | 1012.1 |
| 20260905044553 | 85 | 148 | 11.0 | 18.0 | 0.00 | 0.00 | 0.00 | 79 | 1012.1 |
| 20260905043050 | 85 | 360 | 8.0 | 14.0 | 0.00 | 0.00 | 0.00 | 78 | 1012.2 |
| 20260905041551 | 86 | 140 | 7.0 | 13.0 | 0.00 | 0.00 | 0.00 | 77 | 1012.2 |
| 20260905040042 | 86 | 112 | 7.0 | 12.0 | 0.00 | 0.00 | 0.00 | 77 | 1012.5 |
| 20260905034552 | 86 | 101 | 6.0 | 16.0 | 0.00 | 0.00 | 0.00 | 76 | 1012.2 |
| 20260905033046 | 86 | 147 | 8.0 | 19.0 | 0.00 | 0.00 | 0.00 | 75 | 1012.2 |
| 20260905031543 | 87 | 114 | 10.0 | 18.0 | 0.00 | 0.00 | 0.00 | 74 | 1012.1 |
| 20260905024543 | 87 | 138 | 10.0 | 18.0 | 0.00 | 0.00 | 0.00 | 73 | 1012.0 |
| 20260905023044 | 87 | 128 | 10.0 | 18.0 | 0.00 | 0.00 | 0.00 | 72 | 1011.8 |
| 20260905021543 | 88 | 124 | 12.0 | 25.0 | 0.00 | 0.00 | 0.00 | 70 | 1011.6 |
| 20260905014550 | 89 | 130 | 13.0 | 24.0 | 0.00 | 0.00 | 0.00 | 67 | 1010.6 |
| 20260905013056 | 89 | 121 | 10.0 | 26.0 | 0.00 | 0.00 | 0.00 | 66 | 1010.7 |
| 20260905011543 | 90 | 115 | 12.0 | 23.0 | 0.00 | 0.00 | 0.00 | 65 | 1010.3 |
| 20260905010057 | 90 | 121 | 14.0 | 25.0 | 0.00 | 0.00 | 0.00 | 64 | 1010.0 |
| 20260905004606 | 91 | 141 | 13.0 | 26.0 | 0.00 | 0.00 | 0.00 | 63 | 1010.1 |
| 20260905003056 | 92 | 124 | 15.0 | 24.0 | 0.00 | 0.00 | 0.00 | 61 | 1010.1 |
| 20260905001543 | 93 | 149 | 15.0 | 24.0 | 0.00 | 0.00 | 0.00 | 58 | 1009.8 |
| 20260905000053 | 94 | 129 | 14.0 | 26.0 | 0.00 | 0.00 | 0.00 | 56 | 1009.5 |
| 20260904234547 | 95 | 139 | 16.0 | 29.0 | 0.00 | 0.00 | 0.00 | 54 | 1009.2 |
| 20260904233057 | 96 | 155 | 12.0 | 24.0 | 0.00 | 0.00 | 0.00 | 53 | 1009.1 |
| 20260904231550 | 97 | 107 | 14.0 | 21.0 | 0.00 | 0.00 | 0.00 | 52 | 1009.1 |
| 20260904230051 | 98 | 360 | 11.0 | 23.0 | 0.00 | 0.00 | 0.00 | 51 | 1009.0 |
| 20260904224549 | 99 | 128 | 10.0 | 19.0 | 0.00 | 0.00 | 0.00 | 50 | 1008.9 |
| 20260904223043 | 99 | 153 | 14.0 | 24.0 | 0.00 | 0.00 | 0.00 | 46 | 1009.1 |
| 20260904221544 | 101 | 148 | 11.0 | 19.0 | 0.00 | 0.00 | 0.00 | 40 | 1008.9 |
| 20260904220051 | 101 | 138 | 7.0 | 18.0 | 0.00 | 0.00 | 0.00 | 40 | 1008.9 |
| 20260904214549 | 101 | 124 | 6.0 | 20.0 | 0.00 | 0.00 | 0.00 | 40 | 1009.0 |
| 20260904213044 | 101 | 94 | 7.0 | 17.0 | 0.00 | 0.00 | 0.00 | 44 | 1009.0 |
| 20260904211542 | 101 | 140 | 11.0 | 18.0 | 0.00 | 0.00 | 0.00 | 45 | 1009.1 |
| 20260904210052 | 101 | 141 | 9.0 | 20.0 | 0.00 | 0.00 | 0.00 | 46 | 1009.2 |
| 20260904204543 | 101 | 134 | 7.0 | 17.0 | 0.00 | 0.00 | 0.00 | 46 | 1009.3 |
| 20260904203052 | 102 | 79 | 8.0 | 19.0 | 0.00 | 0.00 | 0.00 | 46 | 1009.4 |
| 20260904201552 | 101 | 114 | 4.0 | 19.0 | 0.00 | 0.00 | 0.00 | 45 | 1009.4 |
| 20260904200050 | 101 | 149 | 5.0 | 20.0 | 0.00 | 0.00 | 0.00 | 44 | 1009.6 |
| 20260904194549 | 100 | 156 | 9.0 | 19.0 | 0.00 | 0.00 | 0.00 | 44 | 1009.8 |
| 20260904193044 | 100 | 137 | 8.0 | 18.0 | 0.00 | 0.00 | 0.00 | 44 | 1009.9 |
| 20260904191549 | 100 | 119 | 6.0 | 18.0 | 0.00 | 0.00 | 0.00 | 46 | 1010.1 |
| 20260904190043 | 99 | 146 | 10.0 | 18.0 | 0.00 | 0.00 | 0.00 | 44 | 1010.4 |
| 20260904184551 | 98 | 142 | 11.0 | 20.0 | 0.00 | 0.00 | 0.00 | 47 | 1010.8 |
| 20260904183049 | 97 | 126 | 10.0 | 16.0 | 0.00 | 0.00 | 0.00 | 48 | 1010.9 |
| 20260904181553 | 97 | 126 | 9.0 | 17.0 | 0.00 | 0.00 | 0.00 | 49 | 1011.4 |
| 20260904180052 | 96 | 135 | 10.0 | 21.0 | 0.00 | 0.00 | 0.00 | 52 | 1011.4 |
| 20260904174603 | 96 | 101 | 11.0 | 21.0 | 0.00 | 0.00 | 0.00 | 53 | 1011.6 |
| 20260904173058 | 95 | 126 | 9.0 | 19.0 | 0.00 | 0.00 | 0.00 | 55 | 1012.0 |
| 20260904171559 | 94 | 158 | 11.0 | 20.0 | 0.00 | 0.00 | 0.00 | 56 | 1012.2 |
| 20260904170050 | 94 | 124 | 11.0 | 18.0 | 0.00 | 0.00 | 0.00 | 59 | 1012.3 |
| 20260904164553 | 92 | 156 | 10.0 | 19.0 | 0.00 | 0.00 | 0.00 | 61 | 1012.3 |
| 20260904163049 | 91 | 132 | 10.0 | 20.0 | 0.00 | 0.00 | 0.00 | 64 | 1012.4 |
| 20260904161543 | 91 | 128 | 11.0 | 19.0 | 0.00 | 0.00 | 0.00 | 64 | 1012.3 |
| 20260904160043 | 90 | 202 | 12.0 | 22.0 | 0.00 | 0.00 | 0.00 | 66 | 1012.3 |
| 20260904154549 | 89 | 126 | 12.0 | 19.0 | 0.00 | 0.00 | 0.00 | 67 | 1012.4 |
| 20260904153055 | 89 | 113 | 11.0 | 19.0 | 0.00 | 0.00 | 0.00 | 71 | 1012.2 |
| 20260904151544 | 87 | 140 | 12.0 | 23.0 | 0.00 | 0.00 | 0.00 | 73 | 1012.4 |
| 20260904150050 | 86 | 128 | 13.0 | 21.0 | 0.00 | 0.00 | 0.00 | 75 | 1012.2 |
| 20260904144548 | 86 | 162 | 8.0 | 24.0 | 0.00 | 0.00 | 0.00 | 77 | 1012.2 |
| 20260904143045 | 85 | 136 | 10.0 | 19.0 | 0.00 | 0.00 | 0.00 | 79 | 1012.2 |
| 20260904141544 | 85 | 140 | 7.0 | 19.0 | 0.00 | 0.00 | 0.00 | 80 | 1012.2 |
| 20260904140051 | 84 | 131 | 9.0 | 18.0 | 0.00 | 0.00 | 0.00 | 82 | 1012.1 |